Regional Weather Roundup
Issued by NWS

Home | Current Version | Previous Version | Graphics & Text | Print | Product List | Glossary On
Versions: 1 2 3 4 5 6 7 8 9 10 11 12 13 14 15 16 17 18 19 20 21 22 23 24 25 26 27 28 29 30 31 32 33 34 35 36 37 38 39 40 41 42 43 44 45 46 47 48 49 50
496
ASUS43 KBIS 172310
RWRND

NORTH DAKOTA REGIONAL WEATHER ROUNDUP
NATIONAL WEATHER SERVICE BISMARCK ND
500 PM CST TUE JAN 17 2017

NOTE: "FAIR" INDICATES FEW OR NO CLOUDS BELOW 12,000 FEET WITH NO
SIGNIFICANT WEATHER AND/OR OBSTRUCTIONS TO VISIBILITY.


NDZ001>003-009>011-017-180000-
NORTHWEST NORTH DAKOTA

CITY           SKY/WX    TMP DP  RH WIND       PRES   REMARKS
WILLISTON      FAIR      29  21  72 SW18      29.71R WCI  16
MINOT          FAIR      33  21  61 SW18      29.65S
$$

NDZ018>021-031>035-040>046-180000-
SOUTHWEST NORTH DAKOTA

CITY           SKY/WX    TMP DP  RH WIND       PRES   REMARKS
BISMARCK       FAIR      31  18  58 S3        29.79F
DICKINSON      FAIR      29  21  72 SW13      29.75R WCI  19
GARRISON         N/A     29  21  72 SW12      29.71F WCI  19
HETTINGER ARPT CLOUDY    30  19  63 W9        29.82R
$$

NDZ004>008-012>016-024-026-027-054-180000-
NORTHEAST NORTH DAKOTA

CITY           SKY/WX    TMP DP  RH WIND       PRES   REMARKS
GRAND FORKS    CLOUDY    22  16  78 S18       29.78F WCI   7
GRND FRKS AFB  CLOUDY    25  19  77 S15       29.76F WCI  13
DEVILS LAKE    FAIR      26  18  71 SW17      29.69F WCI  13
$$

NDZ022-023-025-028>030-036>039-047>053-180000-
SOUTHEAST NORTH DAKOTA

CITY           SKY/WX    TMP DP  RH WIND       PRES   REMARKS
FARGO          CLOUDY    22  17  81 S13       29.88S WCI  10
JAMESTOWN      FAIR      29  18  63 SW15      29.79F WCI  18
$$





USA.gov is the U.S. government's official web portal to all federal, state and local government web resources and services.